Location: Calalzo
(46.4400°N, 12.3830°E)
Time: 01:30:01
(UTC+01:00)

ISS - Visible Passes

Search period start: 28 January 2022 00:00
Search period end: 07 February 2022 00:00
Orbit: 413 x 422 km, 51.6° (Epoch: 27 January)

Date Brightness Start Highest point End Pass type
(mag) Time Alt. Az. Time Alt. Az. Time Alt. Az.
28 Jan -2.7 18:17:47 10° WNW 18:20:50 32° N 18:22:26 21° NE visible
28 Jan -0.8 19:54:39 10° WNW 19:55:22 15° WNW 19:55:22 15° WNW visible
29 Jan -3.0 19:06:34 10° WNW 19:09:19 43° NNW 19:09:19 43° NNW visible
30 Jan -3.0 18:18:28 10° WNW 18:21:38 38° NNE 18:23:19 22° ENE visible
30 Jan -1.0 19:55:14 10° WNW 19:56:15 18° WNW 19:56:15 18° WNW visible
31 Jan -3.8 19:07:05 10° WNW 19:10:19 82° NW 19:10:19 82° NW visible
01 Feb -3.7 18:18:58 10° WNW 18:22:17 62° NNE 18:24:28 19° E visible
01 Feb -1.0 19:56:02 10° W 19:57:25 19° W 19:57:25 19° W visible
02 Feb -2.7 19:07:39 10° WNW 19:10:49 40° SW 19:11:41 32° S visible
03 Feb -3.4 18:19:25 10° WNW 18:22:43 64° SSW 18:26:00 10° SE visible
03 Feb -0.6 19:58:10 10° WSW 19:58:55 11° SW 19:59:06 11° SW visible
04 Feb -1.0 19:08:41 10° W 19:10:57 17° SW 19:13:12 10° S visible
05 Feb -1.6 18:20:04 10° W 18:22:55 27° SW 18:25:47 10° SSE visible
